When you browse on this site, cookies collect data to enhance your experience and personalize the content and advertising you see.
Visit our Privacy Policy to learn more. By continuing to use the site, you agree to this use of cookies and data.

Stündliche Wetter Zorya

Heute, 10 August, Montag

Zeit Temperatur Niederschläge Wind Luftdruck Luftfeuchtigkeit
00:00 +20°C° 0 mm 1 m/S 743 mmHg 87%
01:00 +20°C° 0 mm 1 m/S 743 mmHg 88%
02:00 +19°C° 0 mm 1 m/S 742 mmHg 89%
03:00 +19°C° 0.2 mm 1 m/S 742 mmHg 90%
04:00 +19°C° 0.2 mm 1 m/S 743 mmHg 90%
05:00 +18°C° 0.2 mm 1 m/S 743 mmHg 91%
06:00 +20°C° 0 mm 1 m/S 743 mmHg 88%
07:00 +21°C° 0 mm 1 m/S 743 mmHg 84%
08:00 +22°C° 0 mm 1 m/S 743 mmHg 81%
09:00 +24°C° 0.4 mm 2 m/S 743 mmHg 76%
10:00 +25°C° 0.4 mm 2 m/S 743 mmHg 72%
11:00 +26°C° 0.4 mm 3 m/S 743 mmHg 67%
12:00 +27°C° 0.5 mm 3 m/S 743 mmHg 65%
13:00 +27°C° 0.5 mm 3 m/S 743 mmHg 62%
14:00 +28°C° 0.5 mm 3 m/S 743 mmHg 59%
15:00 +28°C° 0.5 mm 2 m/S 743 mmHg 60%
16:00 +27°C° 0.5 mm 2 m/S 742 mmHg 61%
17:00 +27°C° 0.5 mm 2 m/S 742 mmHg 62%
18:00 +25°C° 0.1 mm 2 m/S 742 mmHg 67%
19:00 +24°C° 0.1 mm 1 m/S 742 mmHg 73%
20:00 +22°C° 0.1 mm 1 m/S 742 mmHg 78%
21:00 +21°C° 0 mm 1 m/S 742 mmHg 80%
22:00 +21°C° 0 mm 1 m/S 742 mmHg 82%
23:00 +20°C° 0 mm 1 m/S 742 mmHg 85%

Morgen, 11 August, Dienstag

Zeit Temperatur Niederschläge Wind Luftdruck Luftfeuchtigkeit
00:00 +20°C° 0 mm 1 m/S 743 mmHg 86%
01:00 +19°C° 0 mm 1 m/S 743 mmHg 87%
02:00 +19°C° 0 mm 1 m/S 743 mmHg 88%
03:00 +19°C° 0 mm 1 m/S 743 mmHg 89%
04:00 +18°C° 0 mm 1 m/S 743 mmHg 89%
05:00 +18°C° 0 mm 1 m/S 743 mmHg 90%
06:00 +20°C° 0 mm 1 m/S 743 mmHg 86%
07:00 +21°C° 0 mm 1 m/S 743 mmHg 82%
08:00 +23°C° 0 mm 1 m/S 743 mmHg 78%
09:00 +24°C° 0.3 mm 2 m/S 743 mmHg 74%
10:00 +25°C° 0.3 mm 2 m/S 743 mmHg 69%
11:00 +26°C° 0.3 mm 2 m/S 743 mmHg 65%
12:00 +27°C° 0.1 mm 2 m/S 743 mmHg 62%
13:00 +27°C° 0.1 mm 2 m/S 743 mmHg 59%
14:00 +28°C° 0.1 mm 2 m/S 743 mmHg 57%
15:00 +27°C° 0.5 mm 2 m/S 743 mmHg 61%
16:00 +27°C° 0.5 mm 3 m/S 743 mmHg 66%
17:00 +26°C° 0.5 mm 3 m/S 743 mmHg 70%
18:00 +25°C° 0.3 mm 3 m/S 743 mmHg 75%
19:00 +22°C° 0.3 mm 3 m/S 743 mmHg 81%
20:00 +20°C° 0.3 mm 3 m/S 743 mmHg 86%
21:00 +20°C° 0.2 mm 3 m/S 743 mmHg 88%
22:00 +19°C° 0.2 mm 3 m/S 743 mmHg 90%
23:00 +18°C° 0.2 mm 3 m/S 743 mmHg 92%

übermorgen, 12 August, Mittwoch

Zeit Temperatur Niederschläge Wind Luftdruck Luftfeuchtigkeit
00:00 +17°C° 0 mm 3 m/S 744 mmHg 93%
01:00 +16°C° 0 mm 3 m/S 744 mmHg 94%
02:00 +16°C° 0 mm 3 m/S 744 mmHg 95%
03:00 +14°C° 0 mm 3 m/S 744 mmHg 95%
04:00 +14°C° 0 mm 3 m/S 744 mmHg 96%
05:00 +13°C° 0 mm 3 m/S 744 mmHg 96%
06:00 +14°C° 0 mm 3 m/S 744 mmHg 92%
07:00 +16°C° 0 mm 3 m/S 745 mmHg 87%
08:00 +17°C° 0 mm 3 m/S 745 mmHg 83%
09:00 +18°C° 0 mm 3 m/S 745 mmHg 75%
10:00 +19°C° 0 mm 3 m/S 745 mmHg 67%
11:00 +21°C° 0 mm 3 m/S 746 mmHg 59%
12:00 +21°C° 0 mm 3 m/S 746 mmHg 58%
13:00 +21°C° 0 mm 3 m/S 746 mmHg 56%
14:00 +22°C° 0 mm 3 m/S 746 mmHg 55%
15:00 +21°C° 0 mm 3 m/S 746 mmHg 57%
16:00 +21°C° 0 mm 3 m/S 746 mmHg 59%
17:00 +21°C° 0 mm 3 m/S 745 mmHg 61%
18:00 +19°C° 0 mm 3 m/S 746 mmHg 66%
19:00 +18°C° 0 mm 2 m/S 746 mmHg 71%
20:00 +16°C° 0 mm 2 m/S 746 mmHg 76%
21:00 +15°C° 0 mm 2 m/S 746 mmHg 78%
22:00 +15°C° 0 mm 2 m/S 746 mmHg 80%
23:00 +14°C° 0 mm 1 m/S 746 mmHg 81%

13 August, Donnerstag

Zeit Temperatur Niederschläge Wind Luftdruck Luftfeuchtigkeit
00:00 +13°C° 0 mm 1 m/S 746 mmHg 82%
01:00 +13°C° 0 mm 1 m/S 746 mmHg 84%
02:00 +11°C° 0 mm 0 m/S 746 mmHg 85%
03:00 +11°C° 0 mm 0 m/S 746 mmHg 85%
04:00 +12°C° 0 mm 1 m/S 746 mmHg 85%
05:00 +12°C° 0 mm 1 m/S 746 mmHg 86%
06:00 +13°C° 0 mm 1 m/S 746 mmHg 81%
07:00 +15°C° 0 mm 1 m/S 746 mmHg 77%
08:00 +16°C° 0 mm 1 m/S 746 mmHg 72%
09:00 +17°C° 0 mm 2 m/S 746 mmHg 67%
10:00 +18°C° 0 mm 2 m/S 746 mmHg 63%
11:00 +20°C° 0 mm 2 m/S 747 mmHg 58%
12:00 +20°C° 0 mm 2 m/S 746 mmHg 58%
13:00 +20°C° 0 mm 3 m/S 746 mmHg 58%
14:00 +20°C° 0 mm 3 m/S 746 mmHg 58%
15:00 +20°C° 0 mm 3 m/S 746 mmHg 59%
16:00 +20°C° 0 mm 3 m/S 746 mmHg 59%
17:00 +20°C° 0 mm 3 m/S 746 mmHg 59%
18:00 +18°C° 0 mm 3 m/S 746 mmHg 64%
19:00 +17°C° 0 mm 3 m/S 746 mmHg 70%
20:00 +14°C° 0 mm 3 m/S 746 mmHg 75%
21:00 +13°C° 0 mm 3 m/S 746 mmHg 77%
22:00 +13°C° 0 mm 2 m/S 746 mmHg 78%
23:00 +12°C° 0 mm 2 m/S 746 mmHg 80%

14 August, Freitag

Zeit Temperatur Niederschläge Wind Luftdruck Luftfeuchtigkeit
00:00 +12°C° 0 mm 2 m/S 746 mmHg 82%
01:00 +11°C° 0 mm 1 m/S 746 mmHg 84%
02:00 +11°C° 0 mm 1 m/S 746 mmHg 86%
03:00 +10°C° 0 mm 1 m/S 746 mmHg 87%
04:00 +10°C° 0 mm 1 m/S 746 mmHg 87%
05:00 +10°C° 0 mm 1 m/S 746 mmHg 88%
06:00 +11°C° 0 mm 1 m/S 746 mmHg 83%
07:00 +13°C° 0 mm 2 m/S 746 mmHg 78%
08:00 +14°C° 0 mm 2 m/S 746 mmHg 73%
09:00 +16°C° 0 mm 2 m/S 746 mmHg 68%
10:00 +17°C° 0 mm 2 m/S 746 mmHg 62%
11:00 +18°C° 0 mm 3 m/S 746 mmHg 57%
12:00 +19°C° 0 mm 2 m/S 746 mmHg 55%
13:00 +20°C° 0 mm 2 m/S 746 mmHg 53%
14:00 +20°C° 0 mm 2 m/S 746 mmHg 52%
15:00 +20°C° 0 mm 2 m/S 745 mmHg 53%
16:00 +20°C° 0 mm 2 m/S 745 mmHg 54%
17:00 +20°C° 0 mm 2 m/S 745 mmHg 55%
18:00 +18°C° 0 mm 2 m/S 745 mmHg 61%
19:00 +16°C° 0 mm 2 m/S 745 mmHg 67%
20:00 +15°C° 0 mm 2 m/S 744 mmHg 72%
21:00 +14°C° 0 mm 2 m/S 744 mmHg 73%
22:00 +14°C° 0 mm 2 m/S 744 mmHg 74%
23:00 +13°C° 0 mm 2 m/S 744 mmHg 74%

15 August, Samstag

Zeit Temperatur Niederschläge Wind Luftdruck Luftfeuchtigkeit
00:00 +13°C° 0 mm 2 m/S 744 mmHg 77%
01:00 +12°C° 0 mm 2 m/S 744 mmHg 79%
02:00 +12°C° 0 mm 2 m/S 744 mmHg 82%
03:00 +10°C° 0 mm 2 m/S 744 mmHg 83%
04:00 +10°C° 0 mm 2 m/S 744 mmHg 84%
05:00 +10°C° 0 mm 2 m/S 744 mmHg 86%
06:00 +12°C° 0 mm 2 m/S 744 mmHg 81%
07:00 +14°C° 0 mm 2 m/S 744 mmHg 77%
08:00 +14°C° 0 mm 3 m/S 744 mmHg 73%
09:00 +17°C° 0 mm 2 m/S 744 mmHg 68%
10:00 +19°C° 0 mm 2 m/S 744 mmHg 63%
11:00 +20°C° 0 mm 2 m/S 744 mmHg 59%
12:00 +21°C° 0 mm 2 m/S 743 mmHg 56%
13:00 +23°C° 0 mm 2 m/S 743 mmHg 54%
14:00 +23°C° 0 mm 2 m/S 743 mmHg 52%
15:00 +23°C° 0 mm 1 m/S 743 mmHg 52%
16:00 +23°C° 0 mm 1 m/S 742 mmHg 53%
17:00 +24°C° 0 mm 1 m/S 742 mmHg 53%
18:00 +22°C° 0 mm 1 m/S 742 mmHg 59%
19:00 +19°C° 0 mm 2 m/S 742 mmHg 64%
20:00 +17°C° 0 mm 2 m/S 742 mmHg 70%
21:00 +16°C° 0 mm 2 m/S 742 mmHg 72%
22:00 +15°C° 0 mm 1 m/S 742 mmHg 73%
23:00 +15°C° 0 mm 1 m/S 742 mmHg 75%
Mehr zeigen